Weather History for Nellis AFB, NV

Change the Weather History Date:

Sunday, August 25, 2013

  Actual Average Record
Temperature  
Mean Temperature 82 °F -  
Max Temperature 90 °F 100 °F 110 °F (2011)
Min Temperature 75 °F 75 °F 68 °F (2002)
Cooling Degree Days 17    
Growing Degree Days 32 (Base 50)    
Moisture  
Dew Point 62 °F    
Average Humidity 56    
Maximum Humidity 78    
Minimum Humidity 36    
Precipitation  
Precipitation 0.00 in - - ()
Sea Level Pressure  
Sea Level Pressure 29.95 in    
Wind  
Wind Speed 8 mph (ESE)    
Max Wind Speed 30 mph    
Max Gust Speed 33 mph    
Visibility 10 miles    
Events      
Averages and records for this station are not official NWS values.
T = Trace of Precipitation, MM = Missing Value Source: NWS Daily Summary

Daily Weather History Graph

Daily Weather History Graph

Search for Another Location

Airport:

Trip Planner

Search our weather history database for the weather conditions in past years. The results will help you decide how hot, cold, wet, or windy it might be!

Date:

Astronomy

Aug. 25, 2013 Rise Set
Actual Time 6:06 AM PDT 7:17 PM PDT
Civil Twilight 5:39 AM PDT 7:43 PM PDT
Nautical Twilight 5:08 AM PDT 8:15 PM PDT
Astronomical Twilight 4:34 AM PDT 8:48 PM PDT
Moon 10:02 PM PDT (8/25) 11:01 AM PDT (8/25)
Length of Visible Light 14h 03m
Length of Day
13h 10m
Waning Gibbous, 75% of the Moon is Illuminated
Aug 25
Waning Gibbous
Aug 28
Last Quarter
Sep 5
New
Sep 12
First Quarter
Sep 19
Full

Hourly Weather History & Observations

Time (PDT) Temp. Heat Index Dew Point Humidity Pressure Visibility Wind Dir Wind Speed Gust Speed Precip Events Conditions
12:58 AM 82.8 °F 82.1 °F 56.5 °F 40% 29.84 in 10.0 mi ESE 6.9 mph - N/A   Clear
1:58 AM 80.6 °F 80.7 °F 56.7 °F 44% 29.84 in 10.0 mi NE 3.5 mph - N/A   Clear
2:58 AM 78.1 °F - 56.7 °F 48% 29.86 in 10.0 mi ENE 6.9 mph - N/A   Clear
3:58 AM 76.5 °F - 57.0 °F 51% 29.87 in 10.0 mi ENE 6.9 mph - N/A   Clear
4:58 AM 75.6 °F - 57.7 °F 54% 29.88 in 10.0 mi NE 9.2 mph - N/A   Clear
5:58 AM 75.9 °F - 57.9 °F 54% 29.89 in 10.0 mi NE 6.9 mph - N/A   Clear
6:58 AM 75.6 °F - 58.1 °F 55% 29.92 in 10.0 mi ENE 6.9 mph - N/A   Clear
7:58 AM 79.3 °F - 58.5 °F 49% 29.93 in 10.0 mi SSW 4.6 mph - N/A   Scattered Clouds
8:58 AM 81.0 °F 81.2 °F 58.5 °F 46% 29.94 in 10.0 mi SW 2.3 mph - N/A   Partly Cloudy
9:58 AM 84.7 °F 84.0 °F 57.9 °F 40% 29.94 in 10.0 mi ESE 5.8 mph - N/A   Partly Cloudy
10:58 AM 86.4 °F 85.6 °F 58.5 °F 39% 29.92 in 10.0 mi Variable 4.6 mph - N/A   Mostly Cloudy
11:58 AM 89.4 °F 89.0 °F 60.1 °F 37% 29.90 in 10.0 mi ESE 13.8 mph - N/A   Clear
12:43 PM 87.8 °F 87.6 °F 60.8 °F 40% 29.96 in 10.0 mi SE 15.0 mph - N/A   Scattered Clouds
12:58 PM 89.4 °F 88.7 °F 59.2 °F 36% 29.89 in 10.0 mi SE 13.8 mph 23.0 mph N/A   Partly Cloudy
1:33 PM 87.8 °F 89.4 °F 64.4 °F 46% 29.95 in 10.0 mi SSE 29.9 mph 33.4 mph N/A   Scattered Clouds
1:58 PM 85.3 °F 86.8 °F 64.9 °F 50% 29.89 in 10.0 mi SE 25.3 mph 32.2 mph N/A   Partly Cloudy
2:58 PM 81.5 °F 82.4 °F 61.9 °F 51% 29.93 in 10.0 mi ESE 15.0 mph 24.2 mph N/A   Mostly Cloudy
3:58 PM 79.9 °F - 64.8 °F 60% 29.94 in 10.0 mi SE 16.1 mph 25.3 mph N/A   Mostly Cloudy
4:38 PM 78.8 °F - 64.4 °F 61% 30.01 in 10.0 mi Variable 3.5 mph - N/A   Overcast
4:58 PM 79.0 °F - 64.9 °F 62% 29.96 in 10.0 mi ENE 10.4 mph - N/A   Overcast
5:13 PM 78.8 °F - 66.2 °F 65% 30.01 in 10.0 mi ENE 12.7 mph - N/A   Mostly Cloudy
5:58 PM 77.4 °F - 66.4 °F 69% 29.99 in 10.0 mi Variable 5.8 mph - N/A   Overcast
6:23 PM 77.0 °F - 66.2 °F 69% 30.04 in 10.0 mi SSE 4.6 mph - N/A   Overcast
6:28 PM 77.0 °F - 66.2 °F 69% 30.04 in 10.0 mi SSE 4.6 mph - N/A   Overcast
6:38 PM 77.0 °F - 66.2 °F 69% 30.03 in 10.0 mi SE 4.6 mph - N/A   Overcast
6:43 PM 78.8 °F - 62.6 °F 57% 30.03 in 10.0 mi ESE 5.8 mph - N/A   Overcast
6:58 PM 78.3 °F - 64.0 °F 61% 29.98 in 10.0 mi West 4.6 mph - N/A   Overcast
6:59 PM 78.8 °F - 64.4 °F 61% 30.03 in 10.0 mi West 3.5 mph - N/A   Light Drizzle
7:32 PM 77.0 °F - 64.4 °F 65% 30.02 in 10.0 mi SE 9.2 mph - N/A   Mostly Cloudy
7:58 PM 77.5 °F - 64.4 °F 64% 29.97 in 10.0 mi ESE 10.4 mph - 0.00 in   Scattered Clouds
8:58 PM 75.0 °F - 67.6 °F 78% 29.99 in 10.0 mi NW 2.3 mph - N/A   Clear
9:58 PM 76.1 °F - 65.7 °F 70% 30.00 in 10.0 mi East 5.8 mph - N/A   Partly Cloudy
10:58 PM 75.4 °F - 66.0 °F 73% 30.00 in 10.0 mi ENE 6.9 mph - N/A   Partly Cloudy
11:58 PM 75.0 °F - 66.7 °F 75% 30.00 in 10.0 mi NE 5.8 mph - N/A   Clear